Regional Weather Roundup
Issued by NWS

Home | Current Version | Previous Version | Text Only | Print | Product List | Glossary Off
Versions: 1 2 3 4 5 6 7 8 9 10 11 12 13 14 15 16 17 18 19 20 21 22 23 24 25 26 27 28 29 30 31 32 33 34 35 36 37 38 39 40 41 42 43 44 45 46 47 48 49 50

000
ASUS43 KMKX 180921
RWRWI

WISCONSIN REGIONAL WEATHER ROUNDUP
NATIONAL WEATHER SERVICE MILWAUKEE/SULLIVAN WI
400 AM CDT FRI AUG 18 2017

NOTE: "FAIR" INDICATES FEW OR NO CLOUDS BELOW 12,000 FEET WITH NO
SIGNIFICANT WEATHER AND/OR OBSTRUCTIONS TO VISIBILITY.

WIZ001-002-006>008-014>016-023>028-181000-
NORTHWEST WISCONSIN

CITY           SKY/WX    TMP DP  RH WIND       PRES   REMARKS
SUPERIOR ARPT    N/A     56  56  98 W5        29.82R
ASHLAND        CLOUDY    61  59  93 W7        29.78R
HAYWARD        CLOUDY    60  57  89 CALM      29.82R
SIREN          CLEAR     55  54  96 CALM      29.85S
CUMBERLAND     CLEAR     55  55 100 NW3       29.84S
RICE LAKE      CLEAR     58  57  96 W6        29.85S FOG
CHETEK         PTCLDY    59  58  96 NW6       29.83S
LADYSMITH      CLOUDY    62  59  89 W12       29.83R
EAU CLAIRE     CLEAR     60  58  92 NW5       29.81S
MENOMONIE      CLEAR     61  59  94 W5        29.83F
NEW RICHMOND   CLEAR     56  55  98 W6        29.86S
OSCEOLA        CLEAR     58  58 100 CALM      29.88S
$$

WIZ003>005-009-010-017-018-181000-
NORTH CENTRAL WISCONSIN

CITY           SKY/WX    TMP DP  RH WIND       PRES   REMARKS
MANITOWISH WTR DRIZZLE   59  59 100 NW10      29.74R
ARBOR VITAE    RAIN      60  58  96 NW12      29.73R
WOODRUFF       RAIN      60  58  96 NW12      29.73R
RHINELANDER    CLOUDY    60  60 100 W8        29.73R
EAGLE RIVER    DRIZZLE   59  59 100 NW12      29.70S
LAND O LAKES   DRIZZLE   59  59  97 NW7       29.72S
PHILLIPS       CLOUDY    60  59  97 NW7       29.77R
TOMAHAWK         N/A     60  57  91 W8        29.75R
MEDFORD        CLOUDY    60  58  94 W10       29.78R
MERRILL        CLOUDY    63  61  94 NW10      29.75R
$$

WIZ029-030-035-036-043>047-181000-
CENTRAL WISCONSIN

CITY           SKY/WX    TMP DP  RH WIND       PRES   REMARKS
WAUSAU         CLOUDY    62  59  90 NW13      29.73R
MOSINEE        CLOUDY    61  59  94 W10G18    29.76R
MARSHFIELD     CLOUDY    62  58  86 W10       29.78R
STEVENS POINT  CLOUDY    61  61  99 W9        29.76R
WAUPACA        CLOUDY    66  62  85 W8        29.73S
WAUTOMA        CLOUDY    65  61  87 W10       29.76S
WISC RAPIDS    CLOUDY    63  61  93 W12       29.79R
CAMP DOUGLAS   MOCLDY    64  60  87 W7        29.80R
$$

WIZ011>013-019>022-031-037>040-048>050-181000-
NORTHEAST WISCONSIN

CITY           SKY/WX    TMP DP  RH WIND       PRES   REMARKS
ANTIGO         CLOUDY    60  59  96 NW14      29.72R
SHAWANO        CLEAR     64  59  83 W9        29.68S
OCONTO         CLOUDY    63  59  88 W10       29.63S
STURGEON BAY   CLOUDY    64  60  87 W16       29.63S
GREEN BAY      CLEAR     62  61  96 W12       29.67S
MANITOWOC      PTCLDY    65  58  78 W13       29.68R
APPLETON       CLOUDY    63  59  88 W13G18    29.69S
CLINTONVILLE   MOCLDY    63  59  88 W13       29.70S
OSHKOSH        CLOUDY    65  61  87 W9G18     29.71S
$$

WIZ032>034-041-042-053>061-181000-
SOUTHWEST WISCONSIN

CITY           SKY/WX    TMP DP  RH WIND       PRES   REMARKS
LA CROSSE      CLOUDY    69  61  75 N7        29.81F
SPARTA         CLOUDY    65  58  80 W6        29.82S
VIROQUA        CLOUDY    63  63 100 CALM      29.83S
BOSCOBEL       PTCLDY    66  62  87 SW5       29.82S
PRAIRIE DU CHI MOCLDY    65  60  82 W8        29.84R
PLATTEVILLE    CLEAR     62  62 100 W5        29.83F
$$

WIZ056-057-062-063-064-067-068-181000-
SOUTH CENTRAL WISCONSIN

CITY           SKY/WX    TMP DP  RH WIND       PRES   REMARKS
REEDSBURG      CLOUDY    64  60  86 W9G16     29.80S
BARABOO/DELLS  CLOUDY    65  58  80 W8        29.80S
LONE ROCK      PTCLDY    64  63  96 W6        29.80S
MINERAL POINT  CLEAR     63  63 100 W6        29.82S
MADISON        CLOUDY    65  62  90 W5        29.78S
MIDDLETON      PTCLDY    65  65  99 W5        29.80S
WATERTOWN      CLOUDY    66  63  91 W8        29.76S
MONROE         CLEAR     64  63  94 W8        29.80F
JANESVILLE     MOCLDY    64  64 100 W7        29.78F
$$

WIZ051-052-058>065-066-070>072-181000-
SOUTHEAST WISCONSIN

CITY           SKY/WX    TMP DP  RH WIND       PRES   REMARKS
MILWAUKEE      CLOUDY    69  61  75 W10       29.74R
WAUKESHA       CLOUDY    63  59  88 W14G20    29.76S
MILWAUKEE/TIMM CLOUDY    64  57  77 W10G18    29.75R
RACINE         MOCLDY    67  62  84 W8        29.76S
KENOSHA        PTCLDY    65  61  87 W9        29.76R
FOND DU LAC    CLOUDY    66  60  81 W13       29.73S
SHEBOYGAN      MOCLDY    66  62  87 W9        29.69R
WEST BEND      CLOUDY    64  61  88 W8        29.73R
JUNEAU         CLOUDY    64  60  87 W8        29.76S
$$

LSZ147-162-181000-
LAKE SUPERIOR

STATION/POSITION TIME  TEMP    WIND        PRES    WAVE
                       AIR SEA DIR/SP/G            HT/PER
                 (UTC) (F)     (DEG/KT/KT) (MB)    (FT/S)
W MID LAKE BUOY  0850   61 59  300/ 10/ 12 1005.5R   3/ 6
DEVILS ISLAND    0900   62     300/ 11/ 12 1007.4R
SAXON HARBOR     0840   64     300/ 13/ 15 1006.8R
$$

LMZ867-665-643>646-181000-
LAKE MICHIGAN

STATION/POSITION TIME  TEMP    WIND        PRES    WAVE
                       AIR SEA DIR/SP/G            HT/PER
                 (UTC) (F)     (DEG/KT/KT) (MB)    (FT/S)
S GREEN BAY BUOY 0900   67 71  260/ 16/ 19 1003.4
N MID LAKE BUOY  0850   64 67  270/ 19/ 23 1001.0R   5/ 4
NORTHPORT PIER   0840   65     290/ 10/ 17 1001.7F
KEWAUNEE LAKESHO 0854   65     280/ 10/ 15 1003.0R
SHEBOYGAN LAKESH 0900   67     280/ 10/ 13 1004.9R
PORT WASHINGTON  0840   68     270/  9/ 12 1007.1S
ATWATER BUOY     0839   68 69  260/ 14/ 17 1007.1R
MILWAUKEE LAKESH 0900   68     270/ 14/ 16   N/A
S MID LAKE BUOY  0850   69 71  310/ 19/ 21 1006.5R   4/ 5
KENOSHA   LAKESH 0900   67     260/  7/ 14 1007.8
$$

TC  - TEMPERATURE IN CELSIUS
VSB - VISIBILITY IN STATUTE MILES
WCI - WIND CHILL INDEX
HX  - HEAT INDEX





USA.gov is the U.S. government's official web portal to all federal, state and local government web resources and services.